www.pogodaiklimat.ru

Погода и климат >> Архив погоды >> Россия >> Камчатский край >> Усть-Воямполка


ПОГОДА в Усть-Воямполке

  • Прогноз погоды в Усть-Воямполке
  • Монитор погоды в Усть-Воямполке

АРХИВ ПОГОДЫ в Усть-Воямполке

Время (UTC), дата Ветер
(напр.,м/с)
 
Видим.   Явления Облачность Т
(С)
Тd
(С)
f
(%)
Тe
(С)
Тes
(С)
Комфортность P
(гПа)
Po
(гПа)
Тmin
(С)
Tmax
(С)
R
(мм)
R24
(мм)
S
(см)
00 12.01 С 5 50 км 9/0
[Ac trans]
-4.5 -9.6 68 -11 -11 1007.8 1006.9 -4.5
06 12.01 СВ 8-10
{13}
20 км 8/0
[Ac trans Ci fib]
-5.6 -9.3 75 -14 -14 1009.1 1008.2
12 12.01 СВ 6
{12}
20 км 5/0
[Ac trans Ci fib]
-5.9 -11.3 66 -14 -14 1010.5 1009.6
18 12.01 СВ 5 20 км 5/0
[Ac trans Ci fib]
-7.3 -11.5 72 -15 -15 1010.2 1009.3
00 13.01 ЮВ 5 50 км 5/0
[Ac trans Ci fib]
-17.7 -19.4 87 -27 -27 1010.9 1010.0 -18.1
06 13.01 ЮВ 4 20 км 4/0
[Ac trans Ci fib]
-18.4 -20.3 85 -27 -27 1010.5 1009.6
12 13.01 ЮВ 4 20 км 3/0
[Ci fib]
-19.7 -21.5 86 -29 -29 1010.8 1009.8
18 13.01 ЮВ 5 20 км 3/0
[Ci fib]
-21.7 -23.7 84 -32 -32 опасность
обморожения
1011.2 1010.2
00 14.01 ЮВ 3 20 км 10/10 300 м
[St]
-17.3 -19.0 87 -24 -24 1011.3 1010.4
06 14.01 ЮВ 1 20 км 10/10 300 м
[St]
-16.5 -18.1 87 -19 -19 1011.2 1010.3
09 14.01 ЮВ 1 20 км 10/10 300 м
[St]
-16.5 -18.1 87 -19 -19 1011.2 1010.3
12 14.01 С 10-13
{13}
20 км позёмок {снег} 10/10 600 м
[Sc]
-12.8 -14.7 86 -24 -24 1012.5 1011.6
18 14.01 С 8-10
{12}
20 км позёмок 6/0
[Ci fib]
-13.8 -16.7 79 -24 -24 1015.3 1014.4
00 15.01 ЮВ 2 50 км 10/0
[]
-18.2 -20.1 85 -24 -23 1017.4 1016.4 -18.3
06 15.01 ЮВ 2 50 км {метель} 10/0
[Ac trans]
-18.2 -20.1 85 -24 -24 1017.4 1016.4 -18.3
09 15.01 ЮВ 2 50 км {метель} 10/0
[Ac trans]
-18.2 -20.1 85 -24 -24 1017.4 1016.4 -18.3
12 15.01 ЮВ 4 20 км 4/0
[Ci fib]
-27.1 -29.8 78 -38 -38 опасность
обморожения
1019.7 1018.7
15 15.01 ЮВ 4 20 км 4/0
[Ci fib]
-27.1 -29.8 78 -38 -38 опасность
обморожения
1019.7 1018.7
18 15.01 ЮВ 5 20 км 4/0
[Ci fib]
-29.7 -32.6 76 -42 -42 опасность
обморожения
1021.2 1020.2
00 16.01 ЮВ 5 50 км 3/0
[Ci fib]
-30.7 -33.8 74 -43 -43 опасность
обморожения
1022.2 1021.2 -32.0
06 16.01 ЮВ 3 20 км 3/0
[Ci fib]
-29.4 -32.3 76 -39 -39 опасность
обморожения
1020.8 1019.8
12 16.01 В 2 20 км 1/0
[Ci fib]
-31.9 -35.2 72 -40 -40 опасность
обморожения
1018.1 1017.1
18 16.01 СВ 6-10
{12}
н/о н/о -19.5 -22.8 75 -30 -30 1013.1 1012.1
00 17.01 СВ 5
{17}
50 км {метель} 8/0
[Ac trans]
-19.5 -22.0 80 -29 -29 1007.0 1006.0
06 17.01 СВ 4
{11}
20 км 10/0
[Ac trans]
-17.7 -21.6 71 -26 -26 1002.8 1001.9
12 17.01 С 8-11
{13}
20 км 10/0
[Ac trans]
-13.9 -16.6 80 -24 -24 999.4 998.5
18 17.01 С 12-14
{16}
20 км 10/0
[Ac trans]
-11.0 -12.4 89 -23 -23 996.9 996.0
21 17.01 С 12-14
{16}
20 км 10/0
[Ac trans]
-11.0 -12.4 89 -23 -23 996.9 996.0
00 18.01 ЮВ 3
{11}
20 км слаб. снег 10/0
[As op]
-13.5 -14.8 90 -20 -20 998.7 997.8
03 18.01 ЮВ 3
{11}
20 км слаб. снег 10/0
[As op]
-13.5 -14.8 90 -20 -20 998.7 997.8
06 18.01 ЮВ 2 20 км {снег} 8/0
[Ac trans]
-14.1 -15.4 90 -19 -19 999.9 999.0
09 18.01 ЮВ 2 20 км {снег} 8/0
[Ac trans]
-14.1 -15.4 90 -19 -19 999.9 999.0
12 18.01 ЮВ 3 20 км 4/0
[Ci fib]
-23.1 -25.3 82 -31 -31 опасность
обморожения
1000.9 1000.0
18 18.01 ЮВ 4
{12}
20 км 8/0
[Ac trans]
-24.2 -26.4 82 -34 -34 опасность
обморожения
1000.4 999.4

 

Местоположение метеостанции Усть-Воямполка (Камчатский край, Россия): широта 58.50 долгота 159.10 высота над уровнем моря 7 м.

В архиве по умолчанию представлена погода в Усть-Воямполке за последнюю неделю. Архивные данные за месяц целиком и за предыдущие месяцы, начиная с января 2011 года, Вы можете получить, выбрав интересующий диапазон дат из раскрывающегося списка и нажав кнопку "Ввод!".


*Определитесь, кто Вы:
робот инопланетянин человек

Внимание! Время в таблицах - всемирное. Для получения местного времени необходимо прибавить поправку, которая равна 12 ч.

Смотрите также архив погоды в соседних городах и на ближайших метеорологических станциях:

Погода в Палане (Камчатский край, Россия) (79 км)
Погода в Тигиле (Камчатский край, Россия) (88 км)
Погода в Усть-Хайрюзово (Камчатский край, Россия) (213 км)
Погода в Оссоре (Камчатский край, Россия) (238 км)
Погода на Мысе Озерном (Камчатский край, Россия) (259 км)
Погода в Ключах (Камчатский край, Россия) (263 км)
Погода в Козыревске (Камчатский край, Россия) (276 км)
Погода в Эссо (Камчатский край, Россия) (287 км)
Погода в Брохово (Магаданская область, Россия) (308 км)
Погода на Шелихова (Магаданская область, Россия) (309 км)

Пояснения к столбцам:

Ветер - указаны скорость ветра в м/с - средняя за 10 мин, порывы в срок и между сроками (в фигурных скобках) и направление, откуда дует ветер: С - северный, СВ - северо-восточный, В - восточный, ЮВ - юго-восточный, Ю - южный, ЮЗ - юго-западный, З - западный, СЗ - северо-западный.
Видимость - горизонтальная дальность видимости в метрах или километрах. При видимости от 1 до 10 км при отсутствии осадков обычно наблюдается дымка, при ухудшении видимости до 1 км и менее - туман. В сухую погоду видимость может ухудшаться дымом, пылью или мглою.
Явления - указаны атмосферные явления, наблюдавшиеся в срок или в последний час перед сроком; фигурными скобками обозначены явления, наблюдавшиеся между сроками (за 1-3 часа до срока); квадратными скобками обозначены град или гололедные отложения с указанием их диаметра в мм.
Облачность - указаны через наклонную черту общая и нижняя облачность в баллах и высота нижней границы облаков в метрах; квадратными скобками обозначены формы облаков: Ci - перистые, Cs - перисто-слоистые, Cc - перисто-кучевые, Ac - высококучевые, As - высокослоистые, Sc - слоисто-кучевые, Ns - слоисто-дождевые, Cu - кучевые, Cb - кучево-дождевые. Подробнее классификацию облаков см. в Атласе облаков (PDF).
T - Температура воздуха - температура, измеренная на высоте 2 м над землей.
Td - Температура точки росы - температура, при понижении до которой содержащийся в воздухе водяной пар достигнет насыщения.
f - Относительная влажность воздуха - влажноcть воздуха, измеренная на высоте 2 м над землей.
Te - Эффективная температура - температура, которую ощущает одетый по сезону человек в тени. Характеристика душности погоды. При расчете учитывается влияние влажности воздуха и скорости ветра на теплоощущения человека.
Tes - Эффективная температура на солнце - температура, которую ощущает человек, с поправкой на солнечный нагрев. Характеристика знойности погоды. Зависит от высоты солнца над горизонтом, облачности и скорости ветра. Ночью, в пасмурную погоду, а также при ветре 12 м/с и более поправка равна нулю.
P - Атмосферное давление - приведенное к уровню моря атмосферное давление.
Po - Атмосферное давление - измеренное на уровне метеостанции атмосферное давление.
Tmin - Минимальная температура - минимум температуры воздуха на высоте 2 м над землей.
Tmax - Максимальная температура - максимум температуры воздуха на высоте 2 м над землей.
R - Количество осадков - Количество выпавших осадков за период времени, мм. При наведении курсора мыши на число - период времени, за который выпало указанное количество осадков.
R24 - Количество осадков - Количество выпавших осадков за 24 часа, мм.
S - Снежный покров - Высота снежного покрова, см. При наведении курсора мыши на число - состояние снежного покрова и степень покрытия местности в баллах.